Location: *
(49.9853°N, 3.5569°E)
Time: 15:42:18
(UTC+00:00)

Cosmos 2154 Rocket - Pass Details

Date: 22 September 2019
Orbit: 965 x 997 km, 82.9° (Epoch: 16 October)

Event Time Altitude Azimuth Distance (km) Brightness Sun altitude
Rises 18:45:12 0° 348° (NNW) 3,668 7.4 -10.5°
Reaches altitude 10° 18:47:43 10° 347° (NNW) 2,717 6.7 -10.9°
Maximum altitude 18:53:53 71° 265° (W) 1,021 4.3 -11.8°
Drops below altitude 10° 19:00:02 10° 182° (S) 2,706 6.2 -12.8°
Sets 19:02:32 0° 181° (S) 3,652 6.8 -13.2°
